Albany, VT

12:50 PM EDT on August 27, 2016 (GMT -0400)
Newport State

Weather History for KEFK - November, 2013

Change the Weather History Date:

Sunday, November 3, 2013

  Actual Average Record
Temperature  
Mean Temperature 31 °F -  
Max Temperature 35 °F 51 °F 70 °F (1977)
Min Temperature 27 °F 33 °F 16 °F (1980)
Degree Days  
Heating Degree Days 34    
Moisture  
Dew Point 16 °F    
Average Humidity 55    
Maximum Humidity 76    
Minimum Humidity 38    
Precipitation  
Precipitation 0.00 in - - ()
Sea Level Pressure  
Sea Level Pressure 30.19 in    
Wind  
Wind Speed 9 mph (NNW)    
Max Wind Speed 17 mph    
Max Gust Speed 22 mph    
Visibility 10 miles    
Events      
Averages and records for this station are not official NWS values.
T = Trace of Precipitation, MM = Missing Value Source: NWS Daily Summary

Daily Weather History Graph

Daily Weather History Graph

Search for Another Location

Airport or City:

Trip Planner

Search our weather history database for the weather conditions in past years. The results will help you decide how hot, cold, wet, or windy it might be!

Date:

Astronomy

Nov. 03, 2013 Rise Set
Actual Time 6:30 AM EST 4:34 PM EST
Civil Twilight 5:59 AM EST 5:04 PM EST
Nautical Twilight 5:24 AM EST 5:39 PM EST
Astronomical Twilight 4:50 AM EST 6:13 PM EST
Moon 6:31 AM EST (11/3) 4:45 PM EST (11/3)
Length of Visible Light 11h 05m
Length of Day
10h 04m
New Moon, 0% of the Moon is Illuminated
Nov 3
New Moon
Nov 10
First Quarter
Nov 17
Full
Nov 25
Last Quarter
Dec 2
New

Hourly Weather History & Observations

Time (EST) Temp. Windchill Dew Point Humidity Pressure Visibility Wind Dir Wind Speed Gust Speed Precip Events Conditions
12:15 AM 34.0 °F 25.5 °F 25.9 °F 72% 29.90 in 10.0 mi North 11.5 mph - N/A   Overcast
12:35 AM 33.8 °F 25.8 °F 25.5 °F 72% 29.91 in 10.0 mi North 10.4 mph - N/A   Overcast
12:55 AM 33.3 °F 26.4 °F 26.4 °F 76% 29.92 in 10.0 mi North 8.1 mph - N/A   Overcast
1:15 AM 33.1 °F 23.9 °F 24.8 °F 72% 29.93 in 10.0 mi North 12.7 mph - N/A   Overcast
1:35 AM 32.5 °F 23.2 °F 22.5 °F 66% 29.94 in 10.0 mi North 12.7 mph - N/A   Overcast
1:55 AM 32.2 °F 21.8 °F 20.8 °F 63% 29.95 in 10.0 mi North 15.0 mph 20.7 mph N/A   Overcast
1:15 AM 32.0 °F 24.8 °F 21.0 °F 64% 29.95 in 10.0 mi North 8.1 mph - N/A   Overcast
1:35 AM 32.0 °F 23.6 °F 19.8 °F 61% 29.97 in 10.0 mi North 10.4 mph - N/A   Overcast
1:55 AM 31.6 °F 22.6 °F 19.4 °F 61% 29.97 in 10.0 mi North 11.5 mph - N/A   Mostly Cloudy
2:15 AM 30.9 °F 22.8 °F 19.4 °F 62% 29.98 in 10.0 mi NNW 9.2 mph - N/A   Mostly Cloudy
2:35 AM 30.2 °F 21.9 °F 19.8 °F 65% 29.98 in 10.0 mi NNW 9.2 mph - N/A   Scattered Clouds
2:55 AM 29.8 °F 23.9 °F 19.6 °F 66% 29.99 in 10.0 mi NNW 5.8 mph - N/A   Scattered Clouds
3:15 AM 29.3 °F 22.3 °F 19.0 °F 66% 30.00 in 10.0 mi NNW 6.9 mph - N/A   Scattered Clouds
3:35 AM 29.3 °F 19.1 °F 18.9 °F 65% 30.01 in 10.0 mi NNW 12.7 mph - N/A   Clear
3:55 AM 29.3 °F 20.2 °F 18.1 °F 63% 30.02 in 10.0 mi NNW 10.4 mph - N/A   Clear
4:15 AM 29.1 °F 22.1 °F 18.1 °F 64% 30.03 in 10.0 mi NNW 6.9 mph - N/A   Clear
4:35 AM 28.0 °F 20.8 °F 18.5 °F 67% 30.04 in 10.0 mi NW 6.9 mph - N/A   Clear
4:55 AM 28.0 °F 20.8 °F 18.3 °F 67% 30.06 in 10.0 mi NW 6.9 mph - N/A   Clear
5:15 AM 27.9 °F 22.6 °F 18.3 °F 67% 30.07 in 10.0 mi NW 4.6 mph - N/A   Clear
5:35 AM 27.9 °F 20.6 °F 18.3 °F 67% 30.08 in 10.0 mi NW 6.9 mph - N/A   Clear
5:55 AM 27.9 °F 20.6 °F 18.0 °F 66% 30.09 in 10.0 mi NW 6.9 mph - N/A   Clear
6:15 AM 28.0 °F 22.8 °F 18.3 °F 67% 30.10 in 10.0 mi NW 4.6 mph - N/A   Clear
6:35 AM 27.5 °F 22.2 °F 18.5 °F 69% 30.11 in 10.0 mi NW 4.6 mph - N/A   Clear
6:55 AM 27.5 °F 23.6 °F 18.9 °F 70% 30.13 in 10.0 mi NW 3.5 mph - N/A   Clear
7:15 AM 28.4 °F 21.2 °F 18.9 °F 67% 30.14 in 10.0 mi NW 6.9 mph - N/A   Mostly Cloudy
7:35 AM 29.3 °F 22.3 °F 19.2 °F 66% 30.15 in 10.0 mi NW 6.9 mph - N/A   Mostly Cloudy
7:55 AM 30.2 °F 21.9 °F 19.8 °F 65% 30.15 in 10.0 mi NNW 9.2 mph 16.1 mph N/A   Mostly Cloudy
8:15 AM 30.2 °F 21.3 °F 19.0 °F 63% 30.17 in 10.0 mi North 10.4 mph - N/A   Scattered Clouds
8:35 AM 30.2 °F 19.3 °F 19.6 °F 65% 30.17 in 10.0 mi NNW 15.0 mph - N/A   Mostly Cloudy
8:55 AM 30.7 °F 22.6 °F 19.9 °F 64% 30.18 in 10.0 mi NNW 9.2 mph 18.4 mph N/A   Mostly Cloudy
9:15 AM 30.2 °F 20.2 °F 18.9 °F 63% 30.19 in 10.0 mi North 12.7 mph 17.3 mph N/A   Scattered Clouds
9:35 AM 31.8 °F 22.8 °F 19.6 °F 61% 30.19 in 10.0 mi North 11.5 mph - N/A   Clear
9:55 AM 32.2 °F 23.8 °F 19.0 °F 58% 30.19 in 10.0 mi North 10.4 mph - N/A   Clear
10:15 AM 32.7 °F 22.5 °F 16.3 °F 51% 30.20 in 10.0 mi North 15.0 mph - N/A   Clear
10:35 AM 33.1 °F 22.6 °F 13.6 °F 45% 30.20 in 10.0 mi North 16.1 mph - N/A   Clear
10:55 AM 33.4 °F 23.5 °F 14.0 °F 45% 30.20 in 10.0 mi North 15.0 mph 21.9 mph N/A   Clear
11:15 AM 33.8 °F 23.2 °F 14.7 °F 46% 30.20 in 10.0 mi North 17.3 mph 20.7 mph N/A   Clear
11:35 AM 34.5 °F 24.5 °F 16.2 °F 47% 30.20 in 10.0 mi North 16.1 mph - N/A   Clear
11:55 AM 34.3 °F 26.5 °F 14.4 °F 44% 30.20 in 10.0 mi NW 10.4 mph 19.6 mph N/A   Clear
12:15 PM 34.9 °F 26.2 °F 14.5 °F 43% 30.20 in 10.0 mi North 12.7 mph - N/A   Clear
12:35 PM 35.2 °F 25.8 °F 14.0 °F 42% 30.20 in 10.0 mi North 15.0 mph 21.9 mph N/A   Clear
12:55 PM 35.2 °F 27.1 °F 13.5 °F 41% 30.20 in 10.0 mi North 11.5 mph - N/A   Clear
1:15 PM 35.4 °F 26.8 °F 13.6 °F 41% 30.21 in 10.0 mi NNW 12.7 mph 21.9 mph N/A   Clear
1:35 PM 35.6 °F 26.2 °F 14.0 °F 41% 30.22 in 10.0 mi North 15.0 mph - N/A   Clear
1:55 PM 35.6 °F 27.1 °F 12.7 °F 39% 30.22 in 10.0 mi North 12.7 mph 19.6 mph N/A   Clear
2:15 PM 35.6 °F 27.5 °F 12.4 °F 38% 30.24 in 10.0 mi North 11.5 mph - N/A   Clear
2:35 PM 35.6 °F 28.6 °F 13.5 °F 40% 30.25 in 10.0 mi North 9.2 mph - N/A   Clear
2:55 PM 35.4 °F 26.8 °F 14.2 °F 42% 30.26 in 10.0 mi NNW 12.7 mph - N/A   Clear
3:15 PM 34.7 °F 25.1 °F 13.5 °F 42% 30.27 in 10.0 mi NNW 15.0 mph - N/A   Clear
3:35 PM 34.3 °F 27.0 °F 13.1 °F 42% 30.28 in 10.0 mi NNW 9.2 mph 18.4 mph N/A   Scattered Clouds
3:55 PM 33.8 °F 25.8 °F 12.6 °F 42% 30.29 in 10.0 mi NNW 10.4 mph - N/A   Scattered Clouds
4:15 PM 33.1 °F 25.5 °F 12.7 °F 43% 30.29 in 10.0 mi NW 9.2 mph 16.1 mph N/A   Clear
4:35 PM 32.0 °F 27.5 °F 13.8 °F 47% 30.30 in 10.0 mi NW 4.6 mph - N/A   Clear
4:55 PM 32.0 °F 24.8 °F 12.7 °F 45% 30.31 in 10.0 mi NW 8.1 mph - N/A   Clear
5:15 PM 32.0 °F 24.2 °F 11.5 °F 43% 30.32 in 10.0 mi NW 9.2 mph - N/A   Clear
5:35 PM 32.0 °F 25.6 °F 11.5 °F 43% 30.33 in 10.0 mi NW 6.9 mph - N/A   Clear
5:55 PM 32.0 °F 24.2 °F 11.8 °F 43% 30.34 in 10.0 mi NNW 9.2 mph - N/A   Clear
6:15 PM 32.0 °F 24.8 °F 11.5 °F 43% 30.35 in 10.0 mi NW 8.1 mph - N/A   Scattered Clouds
6:35 PM 31.5 °F 25.8 °F 11.5 °F 44% 30.35 in 10.0 mi NW 5.8 mph - N/A   Clear
6:55 PM 30.7 °F 27.3 °F 11.8 °F 46% 30.36 in 10.0 mi NW 3.5 mph - N/A   Clear
7:15 PM 29.8 °F - 12.4 °F 48% 30.36 in 10.0 mi Calm Calm - N/A   Clear
7:35 PM 29.8 °F - 12.2 °F 48% 30.37 in 10.0 mi Calm Calm - N/A   Clear
7:55 PM 29.1 °F - 13.1 °F 51% 30.38 in 10.0 mi Calm Calm - N/A   Clear
8:15 PM 29.3 °F - 13.5 °F 52% 30.39 in 10.0 mi Calm Calm - N/A   Clear
8:35 PM 28.4 °F - 13.8 °F 54% 30.40 in 10.0 mi Calm Calm - N/A   Clear
8:55 PM 28.0 °F 24.2 °F 14.0 °F 56% 30.41 in 10.0 mi WNW 3.5 mph - N/A   Clear
9:15 PM 28.0 °F 24.2 °F 13.3 °F 54% 30.41 in 10.0 mi WNW 3.5 mph - N/A   Clear
9:35 PM 28.0 °F - 13.1 °F 54% 30.42 in 10.0 mi Calm Calm - N/A   Clear
9:55 PM 28.4 °F - 13.1 °F 53% 30.42 in 10.0 mi Calm Calm - N/A   Clear
10:15 PM 27.5 °F 23.6 °F 13.1 °F 55% 30.43 in 10.0 mi WNW 3.5 mph - N/A   Clear
10:35 PM 28.0 °F - 12.7 °F 53% 30.43 in 10.0 mi Calm Calm - N/A   Clear
10:55 PM 27.5 °F - 13.5 °F 56% 30.44 in 10.0 mi Calm Calm - N/A   Clear